| time (UTC) | temp F | wind direction | speed MPH | gust MPH | rain 1hr in | rain 24hr in | rain mn in | humidity % | barometer mb |
| 20260507181521 | 89 | 277 | 1.0 | 5.0 | 0.00 | 0.00 | 0.00 | 13 | 1013.2 |
| 20260507180008 | 89 | 228 | 1.0 | 5.0 | 0.00 | 0.00 | 0.00 | 14 | 1013.5 |
| 20260507174516 | 87 | 167 | 1.0 | 4.0 | 0.00 | 0.00 | 0.00 | 14 | 1013.7 |
| 20260507173022 | 86 | 345 | 1.0 | 5.0 | 0.00 | 0.00 | 0.00 | 16 | 1014.0 |
| 20260507171518 | 85 | 143 | 2.0 | 5.0 | 0.00 | 0.00 | 0.00 | 16 | 1014.1 |
| 20260507170040 | 84 | 240 | 1.0 | 5.0 | 0.00 | 0.00 | 0.00 | 18 | 1014.1 |
| 20260507164510 | 83 | 255 | 2.0 | 5.0 | 0.00 | 0.00 | 0.00 | 19 | 1014.3 |
| 20260507163011 | 82 | 162 | 4.0 | 7.0 | 0.00 | 0.00 | 0.00 | 19 | 1014.3 |
| 20260507161519 | 82 | 250 | 1.0 | 5.0 | 0.00 | 0.00 | 0.00 | 20 | 1014.4 |
| 20260507160022 | 80 | 199 | 3.0 | 6.0 | 0.00 | 0.00 | 0.00 | 21 | 1014.4 |
| 20260507154524 | 79 | 155 | 3.0 | 6.0 | 0.00 | 0.00 | 0.00 | 22 | 1014.5 |
| 20260507153011 | 77 | 157 | 2.0 | 5.0 | 0.00 | 0.00 | 0.00 | 24 | 1014.5 |
| 20260507151518 | 76 | 176 | 2.0 | 7.0 | 0.00 | 0.00 | 0.00 | 26 | 1014.5 |
| 20260507150019 | 76 | 196 | 3.0 | 6.0 | 0.00 | 0.00 | 0.00 | 25 | 1014.5 |
| 20260507144523 | 79 | 117 | 2.0 | 8.0 | 0.00 | 0.00 | 0.00 | 17 | 1014.4 |
| 20260507143025 | 78 | 32 | 6.0 | 10.0 | 0.00 | 0.00 | 0.00 | 18 | 1014.4 |
| 20260507141512 | 77 | 36 | 4.0 | 10.0 | 0.00 | 0.00 | 0.00 | 20 | 1014.3 |
| 20260507140016 | 76 | 29 | 3.0 | 9.0 | 0.00 | 0.00 | 0.00 | 21 | 1014.4 |
| 20260507134522 | 71 | 272 | 0.0 | 2.0 | 0.00 | 0.00 | 0.00 | 31 | 1014.2 |
| 20260507133024 | 69 | 248 | 0.0 | 2.0 | 0.00 | 0.00 | 0.00 | 30 | 1014.2 |
| 20260507131528 | 70 | 208 | 0.0 | 2.0 | 0.00 | 0.00 | 0.00 | 30 | 1014.1 |
| 20260507130017 | 70 | 58 | 1.0 | 5.0 | 0.00 | 0.00 | 0.00 | 28 | 1013.9 |
| 20260507124519 | 68 | 352 | 0.0 | 1.0 | 0.00 | 0.00 | 0.00 | 30 | 1013.9 |
| 20260507123025 | 70 | 345 | 0.0 | 5.0 | 0.00 | 0.00 | 0.00 | 28 | 1013.8 |
| 20260507121526 | 69 | 39 | 1.0 | 5.0 | 0.00 | 0.00 | 0.00 | 29 | 1013.9 |
| 20260507120028 | 66 | 347 | 1.0 | 2.0 | 0.00 | 0.00 | 0.00 | 32 | 1013.8 |
| 20260507114518 | 66 | 346 | 0.0 | 2.0 | 0.00 | 0.00 | 0.00 | 32 | 1013.8 |
| 20260507113025 | 65 | 15 | 0.0 | 2.0 | 0.00 | 0.00 | 0.00 | 33 | 1013.8 |
| 20260507111524 | 63 | 338 | 0.0 | 2.0 | 0.00 | 0.00 | 0.00 | 34 | 1013.9 |
| 20260507103024 | 66 | 341 | 0.0 | 2.0 | 0.00 | 0.00 | 0.00 | 31 | 1014.0 |
| 20260507101524 | 67 | 323 | 2.0 | 4.0 | 0.00 | 0.00 | 0.00 | 30 | 1014.2 |
| 20260507100029 | 67 | 347 | 2.0 | 4.0 | 0.00 | 0.00 | 0.00 | 30 | 1014.3 |
| 20260507093019 | 66 | 349 | 1.0 | 2.0 | 0.00 | 0.00 | 0.00 | 31 | 1014.6 |
| 20260507091534 | 66 | 335 | 1.0 | 2.0 | 0.00 | 0.00 | 0.00 | 31 | 1014.6 |
| 20260507090033 | 66 | 330 | 0.0 | 2.0 | 0.00 | 0.00 | 0.00 | 32 | 1014.7 |
| 20260507084532 | 66 | 288 | 0.0 | 1.0 | 0.00 | 0.00 | 0.00 | 32 | 1014.7 |
| 20260507081520 | 67 | 345 | 0.0 | 1.0 | 0.00 | 0.00 | 0.00 | 31 | 1015.1 |
| 20260507080023 | 68 | 351 | 0.0 | 4.0 | 0.00 | 0.00 | 0.00 | 30 | 1015.0 |
| 20260507074524 | 65 | 326 | 0.0 | 0.0 | 0.00 | 0.00 | 0.00 | 32 | 1015.1 |
| 20260507073013 | 66 | 323 | 0.0 | 0.0 | 0.00 | 0.00 | 0.00 | 31 | 1015.1 |
| 20260507071521 | 68 | 323 | 0.0 | 0.0 | 0.00 | 0.00 | 0.00 | 29 | 1015.0 |
| 20260507070024 | 71 | 340 | 0.0 | 2.0 | 0.00 | 0.00 | 0.00 | 27 | 1014.9 |
| 20260507064525 | 71 | 353 | 2.0 | 4.0 | 0.00 | 0.00 | 0.00 | 26 | 1015.0 |
| 20260507063027 | 71 | 348 | 2.0 | 4.0 | 0.00 | 0.00 | 0.00 | 27 | 1014.9 |
| 20260507061515 | 69 | 7 | 0.0 | 2.0 | 0.00 | 0.00 | 0.00 | 29 | 1015.0 |
| 20260507060021 | 69 | 354 | 0.0 | 0.0 | 0.00 | 0.00 | 0.00 | 29 | 1015.0 |
| 20260507054522 | 70 | 354 | 0.0 | 0.0 | 0.00 | 0.00 | 0.00 | 28 | 1015.0 |
| 20260507053026 | 70 | 339 | 1.0 | 1.0 | 0.00 | 0.00 | 0.00 | 28 | 1015.0 |
| 20260507051526 | 69 | 329 | 0.0 | 1.0 | 0.00 | 0.00 | 0.00 | 29 | 1015.1 |
| 20260507050034 | 69 | 330 | 0.0 | 0.0 | 0.00 | 0.00 | 0.00 | 28 | 1015.0 |
| 20260507044522 | 69 | 330 | 0.0 | 0.0 | 0.00 | 0.00 | 0.00 | 29 | 1014.9 |
| 20260507043022 | 69 | 329 | 0.0 | 0.0 | 0.00 | 0.00 | 0.00 | 28 | 1014.7 |
| 20260507041524 | 70 | 330 | 0.0 | 1.0 | 0.00 | 0.00 | 0.00 | 28 | 1014.6 |
| 20260507040026 | 70 | 301 | 0.0 | 1.0 | 0.00 | 0.00 | 0.00 | 28 | 1014.3 |
| 20260507034529 | 70 | 301 | 0.0 | 0.0 | 0.00 | 0.00 | 0.00 | 27 | 1014.1 |
| 20260507033022 | 71 | 301 | 0.0 | 0.0 | 0.00 | 0.00 | 0.00 | 27 | 1014.0 |
| 20260507031507 | 72 | 301 | 0.0 | 0.0 | 0.00 | 0.00 | 0.00 | 26 | 1013.7 |
| 20260507030016 | 74 | 301 | 0.0 | 1.0 | 0.00 | 0.00 | 0.00 | 25 | 1013.7 |
| 20260507024517 | 75 | 278 | 0.0 | 1.0 | 0.00 | 0.00 | 0.00 | 24 | 1013.5 |
| 20260507023029 | 76 | 277 | 0.0 | 2.0 | 0.00 | 0.00 | 0.00 | 23 | 1013.1 |
| 20260507021503 | 77 | 287 | 0.0 | 1.0 | 0.00 | 0.00 | 0.00 | 23 | 1013.0 |
| 20260507020010 | 78 | 219 | 0.0 | 3.0 | 0.00 | 0.00 | 0.00 | 23 | 1012.9 |
| 20260507014513 | 79 | 252 | 0.0 | 2.0 | 0.00 | 0.00 | 0.00 | 22 | 1012.9 |
| 20260507013022 | 80 | 252 | 1.0 | 5.0 | 0.00 | 0.00 | 0.00 | 22 | 1012.9 |
| 20260507011523 | 81 | 207 | 1.0 | 3.0 | 0.00 | 0.00 | 0.00 | 21 | 1012.9 |
| 20260507010009 | 83 | 236 | 0.0 | 3.0 | 0.00 | 0.00 | 0.00 | 20 | 1012.8 |
| 20260507004509 | 83 | 219 | 3.0 | 5.0 | 0.00 | 0.00 | 0.00 | 19 | 1012.7 |
| 20260507003015 | 84 | 247 | 0.0 | 3.0 | 0.00 | 0.00 | 0.00 | 20 | 1012.7 |
| 20260507001520 | 83 | 259 | 1.0 | 5.0 | 0.00 | 0.00 | 0.00 | 20 | 1012.7 |
| 20260507000026 | 83 | 240 | 2.0 | 7.0 | 0.00 | 0.00 | 0.00 | 20 | 1012.8 |
| 20260506234507 | 84 | 199 | 1.0 | 6.0 | 0.00 | 0.00 | 0.00 | 19 | 1012.9 |
| 20260506233015 | 84 | 221 | 3.0 | 6.0 | 0.00 | 0.00 | 0.00 | 19 | 1013.0 |
| 20260506231520 | 84 | 158 | 2.0 | 4.0 | 0.00 | 0.00 | 0.00 | 19 | 1013.0 |
| 20260506230028 | 84 | 8 | 1.0 | 5.0 | 0.00 | 0.00 | 0.00 | 19 | 1013.1 |
| 20260506224507 | 85 | 209 | 1.0 | 6.0 | 0.00 | 0.00 | 0.00 | 20 | 1013.2 |
| 20260506223009 | 83 | 4 | 1.0 | 5.0 | 0.00 | 0.00 | 0.00 | 20 | 1013.3 |
| 20260506221513 | 84 | 352 | 2.0 | 6.0 | 0.00 | 0.00 | 0.00 | 20 | 1013.5 |
| 20260506220019 | 84 | 310 | 2.0 | 9.0 | 0.00 | 0.00 | 0.00 | 20 | 1013.8 |
| 20260506214522 | 82 | 176 | 2.0 | 5.0 | 0.00 | 0.00 | 0.00 | 21 | 1013.9 |
| 20260506213007 | 83 | 39 | 2.0 | 5.0 | 0.00 | 0.00 | 0.00 | 20 | 1014.4 |
| 20260506211511 | 82 | 259 | 1.0 | 4.0 | 0.00 | 0.00 | 0.00 | 20 | 1014.5 |
| 20260506210029 | 83 | 267 | 1.0 | 5.0 | 0.00 | 0.00 | 0.00 | 20 | 1014.8 |
| 20260506204523 | 82 | 273 | 1.0 | 4.0 | 0.00 | 0.00 | 0.00 | 20 | 1015.0 |
| 20260506203026 | 81 | 321 | 2.0 | 5.0 | 0.00 | 0.00 | 0.00 | 20 | 1015.1 |
| 20260506201510 | 81 | 247 | 2.0 | 6.0 | 0.00 | 0.00 | 0.00 | 21 | 1015.2 |
| 20260506200015 | 80 | 223 | 3.0 | 7.0 | 0.00 | 0.00 | 0.00 | 22 | 1015.4 |
| 20260506194518 | 80 | 175 | 1.0 | 5.0 | 0.00 | 0.00 | 0.00 | 21 | 1015.5 |
| 20260506193036 | 79 | 191 | 2.0 | 7.0 | 0.00 | 0.00 | 0.00 | 23 | 1015.6 |
| 20260506191524 | 78 | 158 | 6.0 | 10.0 | 0.00 | 0.00 | 0.00 | 23 | 1015.7 |
| 20260506190011 | 78 | 238 | 4.0 | 8.0 | 0.00 | 0.00 | 0.00 | 24 | 1016.0 |
| 20260506184517 | 78 | 167 | 3.0 | 7.0 | 0.00 | 0.00 | 0.00 | 24 | 1016.1 |
| 20260506183022 | 78 | 241 | 2.0 | 6.0 | 0.00 | 0.00 | 0.00 | 24 | 1016.4 |